Back to catalog

THORAD DELTA 1 DEB

AliveSSO
NORAD 8395·DEBRIS·🇺🇸 United States

Launched Nov 15, 1974 from Vandenberg Space Force Base

Loading…

Next Passes (next 24 hours)

TLE

FreshSource: Space-Track

Epoch: Sep 14, 2026, 03:20 UTC

1 08395U 74089BX  26257.13944664  .00001166  00000-0  56970-2 0  9995
2 08395 100.8340 224.4441 0111966   3.0410  10.8434 12.72990238575163

Track THORAD DELTA 1 DEB in real time with AllMySat

Download on the App Store